Tracking 23114 objects as of 15-May-2021
HD Live streaming from Space Station
objects crossing your sky now

BREEZE-M DEB (TANK)

Track BREEZE-M DEB (TANK) now!


NORAD ID: 32374
Int'l Code: 2007-058B
Perigee: 262.5 km
Apogee: 33,519.8 km
Inclination: 46.2 °
Period: 588.5 minutes
Semi major axis: 23262 km
RCS: 5.0489 m2 (large)
Launch date: December 9, 2007
Source: Commonwealth of Independent States (former USSR) (CIS)
Launch site: TYURATAM MISSILE AND SPACE COMPLEX (TTMTR)

Note: This is SATELLITE DEBRIS
aabbcc
Your satellite tracking list
Your tracking list is empty




NASA's NSSDC Master Catalog

Two Line Element Set (TLE):
1 32374U 07058B   21134.09806991  .00003972  00000-0  11315-2 0  9996
2 32374  46.1501 116.9215 7148354 332.2436   3.2189  2.44696630114670
Source of the keplerian elements: AFSPC